Flag for Japan Weather past 2 weeks in Nagasaki, Japan

Now
58 °F

Cool.


Feels Like: 58 °F
Forecast: 59 / 74 °F
Wind: 2 mph from Northeast

Location: Nagasaki

Current Time: Oct 24, 2014 at 2:32:49 AM

Latest Report: Oct 24, 2014 at 1:00 AM


Visibility: N/A

Pressure: 30.09 "Hg

Humidity: 79%

Dew point: 52 °F

Location of NagasakiLocation

Historic Weather in Nagasaki — Graph

°F

Nagasaki temperature yesterday

Maximum temperature yesterday: 71 °F (at 2:00 PM)
Minimum temperature yesterday: 59 °F (at 11:00 PM)
Average temperature yesterday: 65 °F

Past Weeks' High & Low Weather Summary

 TemperatureHumidityPressure
High85 °F (Oct 10, 3:00 PM)94% (Oct 21, 7:00 PM)30.25 "Hg (Oct 21, 7:00 PM)
Low53 °F (Oct 15, 6:00 AM)38% (Oct 15, 3:00 PM)29.15 "Hg (Oct 13, 9:00 AM)
Average69 °F67%30.01 "Hg
* Reported Oct 9 1:00 AM — Oct 24 1:00 AM, Nagasaki, Weather by CustomWeather, © 2014

Note: Actual official high and low records may vary slightly from our data, if they occured in-between our weather recording intervals... More about our weather records

Advertising

Nagasaki weather history for previous 24 hours

 ConditionsComfort  
Time TempWeatherWind HumidityBarometerVisibility
1:00 AM
Oct 24
58 °FCool.2 mph79%30.09 "HgN/A
12:00 AM59 °FCool.2 mph76%30.09 "HgN/A
11:00 PM
Oct 23
59 °FCool.2 mph77%30.10 "HgN/A
10:00 PM60 °FCool.3 mph75%30.11 "HgN/A
9:00 PM62 °FClear.5 mph69%30.10 "Hg19 mi
8:00 PM63 °FMild.3 mph70%30.08 "HgN/A
7:00 PM64 °FMild.9 mph68%30.07 "HgN/A
6:00 PM66 °FPassing clouds.9 mph63%30.06 "Hg16 mi
5:00 PM68 °FMild.10 mph57%30.04 "HgN/A
4:00 PM71 °FMild.8 mph55%30.03 "HgN/A
3:00 PM71 °FPassing clouds.8 mph52%30.02 "Hg19 mi
2:00 PM71 °FMild.7 mph48%30.02 "HgN/A
1:00 PM70 °FMild.8 mph48%30.03 "HgN/A
12:00 PM69 °FPassing clouds.13 mph49%30.06 "Hg19 mi
11:00 AM68 °FMild.7 mph47%30.08 "HgN/A
10:00 AM67 °FMild.5 mph52%30.10 "HgN/A
9:00 AM64 °FPassing clouds.3 mph58%30.10 "Hg19 mi
8:00 AM61 °FCool.2 mph68%30.09 "HgN/A
7:00 AM59 °FCool.3 mph73%30.08 "HgN/A
6:00 AM61 °FPassing clouds.6 mph66%30.06 "Hg12 mi
5:00 AM62 °FCool.10 mph65%30.05 "HgN/A
4:00 AM62 °FCool.7 mph65%30.04 "HgN/A
3:00 AM62 °FPassing clouds.8 mph65%30.03 "Hg12 mi
2:00 AM63 °FMild.10 mph68%30.03 "HgN/A
Weather by CustomWeather, © 2014

See weather overviewHow to use our weather pages